Regional Weather Roundup
Issued by NWS

Home | Current Version | Previous Version | Text Only | Print | Product List | Glossary On
Versions: 1 2 3 4 5 6 7 8 9 10 11 12 13 14 15 16 17 18 19 20 21 22 23 24 25 26 27 28 29 30 31 32 33 34 35 36 37 38 39 40 41 42 43 44 45 46 47 48 49 50
000
ASUS42 KFFC 241103
RWRGA
WEATHER ROUNDUP FOR GEORGIA
NATIONAL WEATHER SERVICE PEACHTREE CITY GA
700 AM EDT THU JUL 24 2014

NOTE: "FAIR" INDICATES FEW OR NO CLOUDS BELOW 12,000 FEET WITH NO
SIGNIFICANT WEATHER AND/OR OBSTRUCTIONS TO VISIBILITY.

* = USE WITH CAUTION. THE STATIONS MARKED WITH AN ASTERISK MAY NOT
REPORT WEATHER SUCH AS PRECIPITATION, FOG, OR THUNDER AND ARE NOT
QUALITY CONTROLLED BY NWS.

THE REMARK "TC" DENOTES TEMPERATURE READING IN DEGREES CELSIUS.

GAZ001>058-241200-
NORTH GEORGIA

CITY           SKY/WX    TMP DP  RH WIND       PRES   REMARKS
ATLANTA        PTCLDY    72  69  90 SW6       29.99S
ATHENS         CLEAR     72  70  93 CALM      29.97S FOG
CHAMBLEE       CLEAR     71  68  90 CALM      29.99S FOG
PEACHTREE CITY CLEAR     69  68  96 CALM      30.01R FOG
ROME           CLOUDY    72  72 100 SW5       29.97R FOG
WEST ATLANTA   CLEAR     72  69  90 S3        29.99R
GAINESVILLE    CLOUDY    72  70  93 W7        30.01S
CARTERSVILLE   PTCLDY    70  68  93 CALM      29.98S


CITY           SKY/WX    TMP DP  RH WIND       PRES   REMARKS
DALTON*        CLOUDY    70  70 100 CALM      29.97S FOG
LAWRENCEVILLE* CLEAR     72  64  78 W7        29.99  FOG
KENNESAW*      PTCLDY    72  68  88 SW6       30.00
$$

GAZ059>098-102>109-241200-
CENTRAL GEORGIA

CITY           SKY/WX    TMP DP  RH WIND       PRES   REMARKS
AUGUSTA-BUSH   CLEAR     74  71  91 W5        29.95R
AUGUSTA-DANIEL CLEAR     76  72  87 W3        29.97R
COLUMBUS       PTCLDY    74  71  91 CALM      29.99R
MACON          CLEAR     72  72 100 SW3       29.98S
ROBINS AFB     CLEAR     74  72  93 VRB3      29.98S


CITY           SKY/WX    TMP DP  RH WIND       PRES   REMARKS
LAGRANGE*      CLEAR     74  73  99 CALM      30.00S FOG
SYLVANIA*      CLEAR     75  75  99 CALM      29.99R
MILLEDGEVILLE* CLEAR     55 N/A N/A CALM      29.98R
$$

GAZ099>101-110>166-241200-
SOUTH GEORGIA

CITY           SKY/WX    TMP DP  RH WIND       PRES   REMARKS
SAVANNAH       CLEAR     77  72  84 SW6       29.98S
VALDOSTA       PTCLDY    73  68  84 CALM      30.02R HAZE
ALMA           CLEAR     73  71  93 W3        30.00R
ST SIMONS      CLEAR     77  73  87 W6        30.00R
FT STEWART     CLEAR     76  73  88 SW6       29.98R
ALBANY         CLEAR     73  72  96 CALM      30.03R FOG
HUNTER AFB     CLEAR     76  74  92 SW6       29.97R
MOODY AFB      CLEAR     74  74 100 SW5       30.01R
BRUNSWICK      CLEAR     77  72  83 CALM      30.00S


CITY           SKY/WX    TMP DP  RH WIND       PRES   REMARKS
BAINBRIDGE*    CLEAR     77  75  94 CALM      30.02R FOG
MOULTRIE*      CLEAR     72  72 100 CALM      30.03R FOG
VIDALIA*         N/A     73  72  94 SW3       29.99S
WAYCROSS*      CLEAR     76  75  99 W3        30.01R
DOUGLAS*       CLEAR     73  72  94 SW3       30.02S FOG
$$



USA.gov is the U.S. government's official web portal to all federal, state and local government web resources and services.